[[{"header":{"parameterUnit":"m.s-1","parameterCategory":1,"la1":30.2991,"la2":30.254,"lo1":-89.0895,"lo2":-89.0444,"dy":0.0017,"dx":0.0017,"nx":28,"ny":28,"refTime":"2025-03-25T03:00:00:Z","depth":0,"parameterNumber":2,"parameterNumberName":"U-component_of_WINDS"},"data":[0,0,0,0,0,0,0,0,0,0,0,0,0,0,0,0,0,0,0,0,0,0,0,0,0,0,0,0,0,0,0,0,0,0,0,0,0,0,0,0,0,0,0,0,0,0,0,0,0,0,0,0,0,0,0,0,0,0,0.7193,0.7194,0,0.7318,0.7319,0.7321,0.7375,0.7374,0.7374,0.7374,0.7502,0.7506,0.751,0,0,0,0,0,0,0,0,0,0,0,0,0,0.7001,0.7004,0.7193,0.7195,0.7196,0.7317,0.7319,0.7321,0.7375,0.7374,0.7374,0.7374,0.7501,0.7506,0.751,0,0,0,0,0,0,0,0,0,0,0,0,0,0.7101,0.7005,0.7193,0.7238,0.7243,0.7317,0.7319,0.7321,0.7375,0.7374,0.7374,0.7374,0.75,0.7505,0.751,0.755,0,0,0.7527,0.7529,0,0,0,0,0,0,0,0,0.7095,0.7108,0.7229,0.7235,0.7241,0.733,0.7299,0.7398,0.7375,0.7325,0.7374,0.7374,0.7445,0.7455,0.7479,0.7556,0.7561,0.7527,0.7531,0.7533,0.7535,0,0,0,0,0,0,0,0.7088,0.7103,0.7242,0.7231,0.7238,0.7251,0.7265,0.7318,0.7385,0.7329,0.7333,0.7347,0.7448,0.7474,0.7483,0.7563,0.7527,0.7532,0.7535,0.7538,0.7677,0.7677,0,0,0,0,0,0,0.7074,0.7097,0.7238,0.7246,0.7166,0.7255,0.7271,0.7302,0.7385,0.7397,0.7347,0.7349,0.7465,0.7476,0.7487,0.7539,0.7533,0.7538,0.7541,0.7676,0.7677,0.7678,0,0,0,0,0,0,0.707,0.7086,0.7233,0.7173,0.7192,0.7259,0.7293,0.7304,0.733,0.7399,0.7411,0.7361,0.7465,0.748,0.7534,0.7544,0.754,0.7545,0.7676,0.7677,0.7677,0.7641,0,0,0,0,0,0,0.7064,0.7084,0.71,0.7173,0.7195,0.7277,0.7294,0.7307,0.7339,0.7343,0.7415,0.7426,0.7466,0.7525,0.7539,0.7551,0.755,0.7675,0.7676,0.7677,0.7642,0.7641,0.7639,0,0,0,0,0,0.7057,0.7085,0.7101,0.7117,0.7217,0.7278,0.7291,0.7336,0.734,0.7356,0.74,0.7424,0.754,0.753,0.7546,0.756,0.7675,0.7676,0.7677,0.7642,0.7641,0.7639,0,0,0,0,0,0,0.7013,0.7096,0.7114,0.7166,0.7214,0.7287,0.7309,0.7333,0.7381,0.7383,0.7436,0.7452,0.7501,0.7536,0.7523,0.7602,0.761,0.7614,0.7578,0.7577,0.7576,0.7567,0.7554,0,0,0,0,0,0.7009,0.7052,0.7122,0.7161,0.7185,0.7242,0.7271,0.7301,0.7353,0.7374,0.7422,0.7472,0.752,0.755,0.7598,0.7647,0.7663,0.7664,0.7663,0.7662,0.7665,0.7693,0.7694,0.7681,0.7681,0.7681,0,0,0.7002,0.7052,0.7076,0.7154,0.7195,0.7238,0.7259,0.7304,0.7337,0.7381,0.7435,0.7471,0.753,0.7581,0.7607,0.7612,0.7672,0.7663,0.7661,0.7666,0.7694,0.7695,0.7696,0.7682,0.7682,0.7681,0,0,0.7011,0.7053,0.7091,0.7131,0.7193,0.7231,0.7239,0.7308,0.7334,0.7389,0.7423,0.7462,0.7543,0.7584,0.7615,0.7637,0.7662,0.7651,0.7646,0.7672,0.7673,0.7675,0.7683,0.7685,0.7654,0.7654,0.7654,0,0.6994,0.7061,0.7107,0.715,0.7183,0.7224,0.7263,0.7299,0.7373,0.7395,0.74,0.7502,0.7545,0.7606,0.7611,0.7635,0.7647,0.7644,0.7669,0.7671,0.7673,0.7681,0.7684,0.7653,0.7653,0.7653,0.7653,0,0.7037,0.7083,0.7105,0.7175,0.7211,0.7251,0.7303,0.7333,0.736,0.7397,0.7451,0.7504,0.7563,0.7579,0.7606,0.7644,0.7645,0.7659,0.7668,0.7672,0.768,0.7684,0.765,0.7651,0.7651,0.7652,0,0,0.7023,0.7117,0.7125,0.7157,0.7227,0.7263,0.7305,0.7362,0.7387,0.7436,0.7472,0.7539,0.7552,0.7587,0.7619,0.7642,0.7656,0.7653,0.7655,0.7652,0.7701,0.769,0.7693,0.7672,0.7673,0.7673,0.7696,0,0.7042,0.7119,0.7161,0.722,0.7263,0.7302,0.7338,0.7385,0.742,0.7461,0.75,0.7547,0.756,0.7582,0.7606,0.7649,0.7667,0.7648,0.7706,0.7708,0.7691,0.7698,0.7687,0.7706,0.7699,0.77,0.77,0,0.7075,0.7123,0.7186,0.7251,0.727,0.7302,0.7357,0.7396,0.7449,0.7473,0.7512,0.7543,0.7588,0.7592,0.7655,0.7641,0.7667,0.7691,0.7693,0.7701,0.7705,0.7706,0.7713,0.7716,0.7706,0.7706,0.7705,0,0.7058,0.7139,0.7187,0.7213,0.729,0.7311,0.7344,0.7397,0.7429,0.7477,0.7497,0.755,0.7579,0.7619,0.7663,0.7662,0.7721,0.7729,0.7742,0.7741,0.7754,0.7752,0.7765,0.7769,0.7769,0.7769,0.7769,0,0.7076,0.7113,0.7181,0.721,0.7252,0.73,0.7341,0.7377,0.7424,0.7461,0.7497,0.7531,0.7587,0.7628,0.7662,0.7709,0.7721,0.7742,0.7751,0.7739,0.7737,0.7758,0.7758,0.777,0.777,0.777,0.7769,0,0.7065,0.7112,0.7167,0.7234,0.7252,0.7281,0.7338,0.7368,0.7405,0.7451,0.7465,0.7523,0.7572,0.762,0.7686,0.7709,0.7756,0.7767,0.7738,0.7743,0.7753,0.7752,0.7781,0.7787,0.7786,0.7786,0.7786,0,0.7073,0.7102,0.7173,0.72,0.7232,0.7276,0.7308,0.7356,0.7387,0.745,0.7472,0.7524,0.7569,0.7646,0.7694,0.7744,0.7758,0.7764,0.7766,0.7752,0.7758,0.7756,0.7759,0.7763,0.7763,0.7763,0.7763,0,0.7082,0.7104,0.7149,0.7201,0.7238,0.7282,0.7327,0.7347,0.7403,0.7436,0.7487,0.7522,0.7589,0.764,0.7696,0.773,0.7756,0.7761,0.7767,0.7756,0.7738,0.7748,0.7735,0.7761,0.7761,0.7761,0.7761,0.7761,0.7082,0.711,0.7163,0.7212,0.725,0.7291,0.7322,0.7363,0.7406,0.7465,0.749,0.7541,0.7593,0.7671,0.7704,0.7745,0.7751,0.7759,0.7761,0.7763,0.776,0.773,0.7755,0.7755,0.7755,0.7755,0.7755,0,0.7093,0.713,0.7174,0.7235,0.7273,0.7293,0.7343,0.7373,0.7418,0.7464,0.7507,0.7565,0.7614,0.7665,0.7718,0.774,0.7753,0.7752,0.7752,0.7759,0.7752,0.7742,0.7741,0.7741,0.7741,0.7741,0.7741,0.7741,0.7104,0.7152,0.7179,0.7246,0.7283,0.7333,0.736,0.7398,0.7435,0.7498,0.7539,0.7572,0.762,0.7676,0.7722,0.7735,0.7753,0.7749,0.7766,0.7759,0.7759,0.776,0.7751,0.7752,0.7752,0.777,0.777,0.777]},{"header":{"parameterUnit":"m.s-1","parameterCategory":1,"la1":30.2991,"la2":30.254,"lo1":-89.0895,"lo2":-89.0444,"dy":0.0017,"dx":0.0017,"nx":28,"ny":28,"refTime":"2025-03-25T03:00:00:Z","depth":0,"parameterNumber":3,"parameterNumberName":"V-component_of_WINDS"},"data":[0,0,0,0,0,0,0,0,0,0,0,0,0,0,0,0,0,0,0,0,0,0,0,0,0,0,0,0,0,0,0,0,0,0,0,0,0,0,0,0,0,0,0,0,0,0,0,0,0,0,0,0,0,0,0,0,0,0,2.9009,2.9009,0,2.9025,2.9025,2.9025,2.9047,2.9047,2.9048,2.9048,2.9062,2.9062,2.9062,0,0,0,0,0,0,0,0,0,0,0,0,0,2.8993,2.8993,2.9009,2.9009,2.9009,2.9025,2.9025,2.9025,2.9047,2.9047,2.9048,2.9048,2.9062,2.9062,2.9062,0,0,0,0,0,0,0,0,0,0,0,0,0,2.9004,2.8993,2.9009,2.9022,2.9023,2.9025,2.9025,2.9025,2.9047,2.9047,2.9048,2.9048,2.9062,2.9062,2.9062,2.9052,0,0,2.9062,2.9062,0,0,0,0,0,0,0,0,2.9003,2.9004,2.902,2.9021,2.9023,2.9035,2.9025,2.9034,2.9047,2.9038,2.9048,2.9049,2.9052,2.9053,2.9055,2.9052,2.9053,2.9062,2.9062,2.9062,2.9062,0,0,0,0,0,0,0,2.9002,2.9004,2.9015,2.902,2.9022,2.9026,2.9028,2.9027,2.9042,2.9039,2.904,2.9042,2.9053,2.9055,2.9055,2.9053,2.9062,2.9062,2.9062,2.9062,2.904,2.9039,0,0,0,0,0,0,2.9,2.9003,2.9015,2.9016,2.9014,2.9026,2.9028,2.903,2.9042,2.9044,2.9042,2.9043,2.9055,2.9055,2.9056,2.9043,2.9062,2.9062,2.9062,2.904,2.904,2.9039,0,0,0,0,0,0,2.9,2.9001,2.9014,2.901,2.9012,2.9025,2.9028,2.903,2.9032,2.9044,2.9047,2.9041,2.9055,2.9056,2.9052,2.9044,2.9062,2.9063,2.9041,2.904,2.9039,2.9017,0,0,0,0,0,0,2.8999,2.9001,2.8998,2.9009,2.9012,2.9011,2.9027,2.903,2.9032,2.9034,2.9044,2.9046,2.9056,2.9052,2.9052,2.9044,2.9063,2.9042,2.9041,2.904,2.9019,2.9016,2.9013,0,0,0,0,0,2.8998,2.8991,2.8997,2.8999,2.9009,2.901,2.9012,2.9023,2.9032,2.9028,2.9035,2.9046,2.9045,2.9051,2.9052,2.9044,2.9043,2.9041,2.904,2.902,2.9016,2.9013,0,0,0,0,0,0,2.8977,2.8992,2.9,2.8996,2.9002,2.9014,2.901,2.9019,2.9022,2.9024,2.9038,2.904,2.9033,2.9038,2.9046,2.9033,2.9045,2.9044,2.903,2.9026,2.9023,2.9022,2.9063,0,0,0,0,0,2.8972,2.8973,2.8986,2.8981,2.8984,2.8996,2.8998,2.9006,2.9012,2.9014,2.9022,2.9026,2.9027,2.9027,2.9028,2.902,2.9021,2.9014,2.9011,2.9009,2.9007,2.9,2.8997,2.9034,2.9034,2.9034,0,0,2.8961,2.897,2.8969,2.8977,2.8983,2.8982,2.8998,2.8997,2.8997,2.9014,2.9011,2.9016,2.9022,2.9015,2.9012,2.9019,2.8997,2.9007,2.9005,2.9004,2.8999,2.8995,2.8992,2.9033,2.9034,2.9034,0,0,2.8941,2.8948,2.8944,2.8949,2.8957,2.8965,2.8964,2.8975,2.8979,2.8976,2.8989,2.8987,2.8989,2.8992,2.8994,2.8973,2.8982,2.8973,2.8958,2.8951,2.8948,2.8946,2.8937,2.8933,2.8972,2.8972,2.8972,0,2.8926,2.8927,2.8941,2.8939,2.8941,2.8957,2.8952,2.8956,2.8964,2.8964,2.8971,2.8972,2.8977,2.8971,2.8965,2.8967,2.8965,2.8972,2.8948,2.8945,2.8943,2.8935,2.8931,2.897,2.897,2.8971,2.8971,0,2.8908,2.8908,2.8904,2.8911,2.8913,2.8909,2.8921,2.8921,2.8929,2.8936,2.8931,2.8938,2.894,2.8939,2.8947,2.8933,2.8936,2.8946,2.8958,2.8938,2.893,2.8927,2.8969,2.8969,2.8969,2.897,0,0,2.8875,2.8889,2.8887,2.889,2.8899,2.8899,2.8895,2.8898,2.8897,2.8901,2.8897,2.8897,2.8906,2.8907,2.8916,2.891,2.8891,2.892,2.892,2.8913,2.8874,2.8866,2.8862,2.8897,2.8897,2.8896,2.8873,0,2.8856,2.8852,2.8863,2.8855,2.8854,2.8869,2.8865,2.887,2.8876,2.8875,2.8881,2.888,2.8892,2.8893,2.8889,2.8894,2.8883,2.8897,2.8892,2.8892,2.8889,2.8858,2.885,2.8827,2.887,2.8869,2.8869,0,2.8833,2.8836,2.8828,2.8837,2.8837,2.8834,2.8836,2.8836,2.884,2.8845,2.8846,2.8856,2.8851,2.8863,2.8856,2.8865,2.8864,2.8866,2.8866,2.8865,2.8878,2.8855,2.882,2.8816,2.8865,2.8865,2.8865,0,2.8808,2.881,2.8805,2.8807,2.8817,2.8814,2.8818,2.8824,2.8824,2.8826,2.8825,2.8826,2.8826,2.8826,2.8835,2.8844,2.8826,2.884,2.8828,2.8827,2.8823,2.8823,2.8786,2.8824,2.8824,2.8824,2.8824,0,2.8785,2.8779,2.8794,2.8791,2.8784,2.8797,2.8789,2.8794,2.8799,2.8795,2.8808,2.8805,2.8817,2.8814,2.8821,2.8813,2.8813,2.8816,2.8817,2.8814,2.8813,2.8812,2.8814,2.8823,2.8824,2.8824,2.8824,0,2.8755,2.8766,2.8761,2.877,2.8773,2.8767,2.8774,2.8771,2.8778,2.8773,2.8773,2.8783,2.878,2.8789,2.8788,2.8792,2.878,2.8785,2.8778,2.8779,2.8766,2.8767,2.8727,2.8722,2.8764,2.8764,2.8764,0,2.8739,2.8735,2.8744,2.8743,2.8746,2.8745,2.8745,2.8756,2.8756,2.876,2.8755,2.8754,2.8753,2.8748,2.8754,2.8753,2.8757,2.8743,2.8757,2.8753,2.8755,2.8754,2.8753,2.874,2.8739,2.8739,2.8739,0,2.8709,2.8714,2.8714,2.8715,2.8715,2.8717,2.8719,2.8717,2.873,2.8728,2.8726,2.8725,2.8724,2.8721,2.8721,2.8724,2.8732,2.8734,2.8731,2.8727,2.8723,2.8723,2.8769,2.8735,2.8735,2.8736,2.8736,2.8736,2.8685,2.8681,2.8686,2.8685,2.8688,2.869,2.8686,2.8692,2.8691,2.8691,2.8698,2.8693,2.8696,2.8697,2.8698,2.8694,2.87,2.8696,2.8695,2.8694,2.8691,2.8725,2.8694,2.8694,2.8695,2.8695,2.8695,0,2.8654,2.8657,2.8657,2.8659,2.8658,2.8667,2.867,2.8668,2.8664,2.8667,2.8666,2.8662,2.8659,2.8665,2.8663,2.8658,2.8662,2.8657,2.8657,2.8657,2.8686,2.8688,2.8654,2.8654,2.8654,2.8654,2.8654,2.8654,2.8637,2.8631,2.8636,2.863,2.8634,2.863,2.8631,2.8631,2.8633,2.8628,2.8627,2.8631,2.8633,2.8631,2.8629,2.863,2.8628,2.8622,2.8624,2.8651,2.8655,2.8659,2.8661,2.8621,2.8621,2.8595,2.8595,2.8595]}]]